Estación de El Cardal INIA

Ultimos registro cada 15 minutos 29
Estación Fecha / Hora Temperatura Humedad Lluvia Velocidad Dirección Radiación Presion
29 El Cardal INIA 05-05-2026 07:00 11,3 93,4 0 2,1 28 0 1001
28 El Cardal INIA 05-05-2026 06:45 11,2 94,5 0 1,8 37 0 1001
27 El Cardal INIA 05-05-2026 06:30 11,2 95,6 0 0,3 33 0 1001
26 El Cardal INIA 05-05-2026 06:15 11,2 96,2 0 0,7 34 0 1002
25 El Cardal INIA 05-05-2026 06:00 11,2 96,7 0 1,6 41 0 1002
24 El Cardal INIA 05-05-2026 05:45 11,2 97 0,1 1,7 42 0 1002
23 El Cardal INIA 05-05-2026 05:30 11,2 97,1 0 0,5 33 0 1002
22 El Cardal INIA 05-05-2026 05:15 11,2 97,6 0,1 0,4 38 0 1002
21 El Cardal INIA 05-05-2026 05:00 11,2 97,8 0,1 0 0 0 1002
20 El Cardal INIA 05-05-2026 04:45 11,2 98 0,1 0,3 37 0 1002
19 El Cardal INIA 05-05-2026 04:30 11,2 98,7 0 0,4 29 0 1002
18 El Cardal INIA 05-05-2026 04:15 11,1 98,9 0,3 0 42 0 1002
17 El Cardal INIA 05-05-2026 04:00 11 98,9 0,1 0,3 46 0 1002
16 El Cardal INIA 05-05-2026 03:45 11 98,9 0 0 29 0 1002
15 El Cardal INIA 05-05-2026 03:30 10,9 98,4 0,2 0 0 0 1003
14 El Cardal INIA 05-05-2026 03:15 10,9 97,8 0,9 0 0 0 1003
13 El Cardal INIA 05-05-2026 03:00 10,9 97,8 0,5 0 0 0 1003
12 El Cardal INIA 05-05-2026 02:45 10,8 97,7 0,5 0 0 0 1003
11 El Cardal INIA 05-05-2026 02:30 10,8 97,6 0,4 0 0 0 1003
10 El Cardal INIA 05-05-2026 02:15 10,8 97,6 0,1 0 0 0 1003
9 El Cardal INIA 05-05-2026 02:00 10,8 97,7 0 0 0 0 1003
8 El Cardal INIA 05-05-2026 01:45 10,8 97,7 0,2 0 0 0 1003
7 El Cardal INIA 05-05-2026 01:30 10,8 97,8 0,4 0 0 0 1003
6 El Cardal INIA 05-05-2026 01:15 10,8 97,7 0,4 0 0 0 1003
5 El Cardal INIA 05-05-2026 01:00 10,8 97,8 0,6 0 0 0 1003
4 El Cardal INIA 05-05-2026 00:45 10,8 97,7 0,3 0 0 0 1003
3 El Cardal INIA 05-05-2026 00:30 10,7 98 0,4 0 0 0 1003
2 El Cardal INIA 05-05-2026 00:15 10,6 97,9 0,3 0 0 0 1003
1 El Cardal INIA 05-05-2026 00:00 10,6 97,7 0,3 0 0 0 1003